This is the latest recevied weather packets stored in our database for station/object KC2TER. If no packets are shown the sender has not sent any weather packets the latest 10 day(s).
| Time | Temp. | Humidity | Pressure | Rain* | Wind** | Luminosity | Snow |
|---|---|---|---|---|---|---|---|
| 1778170299 | 15.56° C | 55% | 1010.1 hPa | 0 mm | - | 648 W/m² | - |
| 1778169996 | 16.11° C | 55% | 1010.4 hPa | 0 mm | - | 736 W/m² | - |
| 1778169693 | 15.56° C | 54% | 1010.5 hPa | 0 mm | - | 743 W/m² | - |
| 1778169388 | 15.56° C | 57% | 1010.5 hPa | 0 mm | - | 748 W/m² | - |
| 1778169085 | 15.56° C | 58% | 1010.7 hPa | 0 mm | - | 740 W/m² | - |
| 1778168782 | 15° C | 56% | 1010.7 hPa | 0 mm | - | 730 W/m² | - |
| 1778168479 | 15° C | 58% | 1010.6 hPa | 0 mm | - | 716 W/m² | - |
| 1778168175 | 15° C | 58% | 1011 hPa | 0 mm | - | 721 W/m² | - |
| 1778167872 | 15° C | 58% | 1011.1 hPa | 0 mm | - | 769 W/m² | - |
| 1778167568 | 15° C | 57% | 1010.9 hPa | 0 mm | - | 262 W/m² | - |
| 1778167264 | 15° C | 57% | 1011.2 hPa | 0 mm | - | 756 W/m² | - |
| 1778166960 | 15° C | 58% | 1011 hPa | 0 mm | - | 704 W/m² | - |
| 1778166658 | 14.44° C | 57% | 1011.1 hPa | 0 mm | - | 689 W/m² | - |
| 1778166355 | 15° C | 58% | 1011.2 hPa | 0 mm | - | 668 W/m² | - |
| 1778166051 | 14.44° C | 61% | 1011.4 hPa | 0 mm | - | 657 W/m² | - |
| 1778165746 | 14.44° C | 61% | 1011.3 hPa | 0 mm | - | 686 W/m² | - |
| 1778165444 | 13.33° C | 65% | 1011.4 hPa | 0 mm | - | 683 W/m² | - |
| 1778165140 | 13.33° C | 64% | 1011.3 hPa | 0 mm | - | 242 W/m² | - |
| 1778164838 | 13.33° C | 66% | 1011.5 hPa | 0 mm | - | 262 W/m² | - |
| 1778164535 | 13.33° C | 66% | 1011.5 hPa | 0 mm | - | 309 W/m² | - |
| 1778164233 | 13.33° C | 68% | 1011.6 hPa | 0 mm | - | 317 W/m² | - |
| 1778163938 | 13.33° C | 70% | 1011.2 hPa | 0 mm | - | 291 W/m² | - |
| 1778163630 | 12.78° C | 71% | 1011.2 hPa | 0 mm | - | 269 W/m² | - |
| 1778163326 | 12.78° C | 72% | 1011.5 hPa | 0 mm | - | 248 W/m² | - |
| 1778163023 | 12.78° C | 74% | 1011.4 hPa | 0 mm | - | 267 W/m² | - |
* Rain latest hour (hover to see other rain measurements)
** Current wind speed in m/s (hover to see current wind gust speed)